Regional Weather Roundup
Issued by NWS Wakefield, VA

Home | Current Version | Previous Version | Text Only | Print | Product List | Glossary Off
Versions: 1 2 3 4 5 6 7 8 9 10 11 12 13 14 15 16 17 18 19 20 21 22 23 24 25 26 27 28 29 30 31 32 33 34 35 36 37 38 39 40 41 42 43 44 45 46 47 48 49 50

000
ASUS41 KAKQ 272315
RWRAKQ

REGIONAL WEATHER ROUNDUP
NATIONAL WEATHER SERVICE WAKEFIELD VA
700 PM EDT WED MAY 27 2015

Note: "fair" indicates few or no clouds below 12,000 feet with no
significant weather and/or obstructions to visibility. * = Denotes
station may not report precipitation (e.g., rain,snow,etc.),
thunder or fog.

VAZ042-051-052>054-056-280000-
NORTHERN VIRGINIA

CITY           SKY/WX    TMP DP  RH WIND       PRES   REMARKS
WASH NATIONAL  PTSUNNY   84  67  56 CALM      30.12R
DULLES         PTSUNNY   73  72  94 N3        30.12S
FORT BELVOIR   MOSUNNY   82  70  67 E1        30.11S
QUANTICO       PTSUNNY   86  64  48 W8        30.11S
FREDERICKSBRG* PTSUNNY   88  67  48 SW9       30.10S
STAFFORD*      PTSUNNY   86  63  46 SW7       30.15S
WARRENTON      PTSUNNY   81  70  70 N3        30.12S
CULPEPER*      PTSUNNY   81  65  58 CALM      30.12S
MANASSAS*      SUNNY     82  70  65 NW13      30.12R
LEESBURG*      LGT RAIN  79  73  83 S14       30.14R
WINCHESTER     PTSUNNY   84  61  45 SE7       30.12S
FRONT ROYAL*   FAIR      81  70  69 CALM      30.11S
LURAY*         MOCLDY    82  70  65 CALM      30.13S
$$

VAZ048-049-060>072-079>083-280000-
CENTRAL AND SOUTH CENTRAL VIRGINIA

CITY           SKY/WX    TMP DP  RH WIND       PRES   REMARKS
RICHMOND       PTSUNNY   84  66  54 S8        30.13R
CHESTERFIELD*  NOT AVBL
PETERSBURG*    MOSUNNY   85  72  64 SW5       30.14R
HANOVER        PTSUNNY   84  66  54 SW9       30.14R
TAPPAHANNOCK*  PTSUNNY   85  62  45 S5        30.13R
QUINTON*       FAIR      85  69  59 SW3       30.12S
CHARLOTTSVILLE MOSUNNY   82  62  50 SW6       30.13R
GORDONSVILLE*  FAIR      81  65  57 SW5       30.12R
ORANGE*        MOSUNNY   82  64  54 CALM      30.14R
LOUISA*        MOSUNNY   84  64  51 SW5       30.12S
BUMPASS*       FAIR      84  66  53 S5        30.12S
FARMVILLE*     SUNNY     84  65  53 S9        30.13R
CREWE*         FAIR      83  63  51 SW3       30.15R
FORT PICKETT*  FAIR      81  65  57 SW10      30.15S
CHASE CITY*    FAIR      85  70  60 SW5       30.15S
CLARKSVILLE*   FAIR      81  64  57 SW6       30.15S
SOUTH HILL*    SUNNY     83  65  55 SW6       30.20F
LAWRENCEVILLE* FAIR      84  70  61 W3        30.14S
EMPORIA*       PTSUNNY   84  70  61 SE6       30.15S
$$

VAZ088>098-280000-
SOUTHEAST VIRGINIA

CITY           SKY/WX    TMP DP  RH WIND       PRES   REMARKS
NORFOLK        SUNNY     82  67  60 S9G23     30.16R
VIRGINIA BEACH MOSUNNY   81  66  60 S15G26    30.16S
NORFOLK NAVAL  MOSUNNY   86  67  52 S13G21    30.16S
WEST POINT*    MOSUNNY   87  65  47 S7        30.14S
SALUDA*        FAIR      81  71  72 SE8G17    30.13S
NEWPORT NEWS   MOSUNNY   87  69  54 S15G22    30.14S
LANGLEY AFB    SUNNY     82  69  65 S17G24    30.14R
FORT EUSTIS    SUNNY     82  69  64 S10       30.12F
WILLIAMSBURG*  SUNNY     88  72  58 S10       30.14S
HR EXEC AP*    FAIR      82  68  61 S12G18    30.17S
FRANKLIN*      SUNNY     80  69  69 S13G18    30.15S
WAKEFIELD      PTSUNNY   83  70  64 VRB7      30.13S
$$

VAZ020-022-025-037-045-280000-
WEST CENTRAL AND SOUTHWEST VIRGINIA

CITY           SKY/WX    TMP DP  RH WIND       PRES   REMARKS
STAUNTON*      PTSUNNY   83  65  54 S9        30.16S
WAYNESBORO*    FAIR      78  64  61 S9        30.16S
HOT SPRINGS VA MOSUNNY   73  55  54 S8        30.27S
LYNCHBURG      MOSUNNY   78  63  59 SW5       30.17S
DANVILLE       MOSUNNY   83  66  56 S7        30.16S
SOUTH BOSTON*  FAIR      83  63  51 MISG      30.15S
MARTINSVILLE   MOSUNNY   80  65  61 CALM      30.19F
ROANOKE        PTSUNNY   82  63  52 S12       30.16F
BLACKSBURG     MOSUNNY   78  62  57 S6        30.24S
DUBLIN*        MOSUNNY   78  63  58 S7        30.22S
MARION*        MOSUNNY   78  59  52 W6        30.26R
HILLSVILLE*    PTSUNNY   73  64  73 S5        30.24F
RICHLANDS*     FAIR      76  58  53 SW3       30.24S
WISE*          MOSUNNY   77  54  44 W9        30.25S
ABINGDON*      MOSUNNY   82  57  43 N5        30.22R
$$

MDZ021>025-VAZ099-100-280000-
SOUTHERN MARYLAND AND THE DELMARVA PENINSULA

CITY           SKY/WX    TMP DP  RH WIND       PRES   REMARKS
PATUXENT RIVER PTSUNNY   77  69  76 SE10      30.12S THUNDER
BAY BRIDGE APT NOT AVBL
LEONARDTOWN    NOT AVBL
DOVER          MOSUNNY   83  71  66 S13       30.09F
GEORGETOWN     SUNNY     79  67  66 S15       30.14F
EASTON         NOT AVBL
CAMBRIDGE      NOT AVBL
SALISBURY      SUNNY     77  66  68 S10       30.15S
OCEAN CITY     SUNNY     71  63  75 SW14G22   30.18F
WALLOPS ISLAND SUNNY     71  65  81 S17G25    30.18F
ACCOMACK*      SUNNY     75  68  78 S16G26    30.17S
$$

NCZ012>017-030>032-280000-
NORTH CENTRAL AND EASTERN NORTH CAROLINA

CITY           SKY/WX    TMP DP  RH WIND       PRES   REMARKS
ROANOKE RAPIDS MOCLDY    81  70  69 S14       30.15R
RALEIGH        TSTM      73  68  84 CALM      30.18R
ELIZABETH CITY SUNNY     78  66  66 S10       30.20S
AHOSKIE*       MOSUNNY   79  69  71 S8        30.16S
EDENTON*         N/A     78  68  71 S17G23    30.19F
CURRITUCK*     SUNNY     79  64  59 S6        30.20S
KILL DEVIL HLS SUNNY     75  64  67 S7        30.21S
MANTEO         SUNNY     75  64  69 S17       30.22S
CAPE HATTERAS  SUNNY     75  61  61 S14       30.24S
TARBORO*       MOCLDY    80  71  73 S12G21    30.17S
GOLDSBORO      CLOUDY    79  68  68 S10       30.17R
WASHINGTON     MOSUNNY   79  67  67 S14G20    30.20S
GREENVILLE     MOSUNNY   81  70  69 S14       30.20R
NEW BERN       MOSUNNY   77  65  66 S12       30.22S
WILMINGTON     MOSUNNY   77  67  71 S13       30.21F
$$

VAZ048-280000-
ELSEWHERE

CITY           SKY/WX    TMP DP  RH WIND       PRES   REMARKS
HARRISBURG PA  PTSUNNY   77  66  68 SE5       30.10F
BALTIMORE      PTSUNNY   78  66  66 CALM      30.11F
ANNAPOLIS      PTSUNNY   77  67  71 SE8       30.13R
ANDREWS AFB    MOSUNNY   79  68  68 NE6       30.12R
PHILADELPHIA   CLOUDY    77  69  76 SW7       30.13R THUNDER
HENDERSON NC   PTSUNNY   83  61  47 W5        30.17S
GREENSBORO     PTSUNNY   81  63  54 SW12      30.17S
ROCKY MOUNT    PTSUNNY   80  70  71 SW22G33   30.18R
$$

VAZ100-280000-
MARINE

STATION/POSITION TIME  TEMP    WIND        PRES    WAVE   SWELL
                       AIR SEA DIR/SP/G            HT/PER HT/PER
                 (UTC) (F)     (DEG/KT/KT) (MB)    (FT/S) (FT/S)
15NM E FENWICK I 2150   67 63              1021.6    4/ 5
THOMAS POINT MD  2200   78 70  360/  5/  6 1020.4R
GOOSES REEF MD   2200   73 69  170/ 16/ 19 1020.7F   1/ 2
JAMESTOWN VA     2200   83 77  190/ 10/ 12 1019.2F
CHESAPEAKE LGHT  2200   69     170/ 27/ 29 1022.0S
1ST LANDING BUOY 2200      72              1021.0F
64NM E OF VA BCH 2150   68 64  190/ 12/ 14 1023.3    3/ 7   2/ 7
DIAMOND SHLS NC  2150   75 77  160/ 16/ 17 1024.0    3/ 8   2/ 8
CAPE LOOKOUT NC  2200   74     160/ 13/ 15 1023.6F
$$


USA.gov is the U.S. government's official web portal to all federal, state and local government web resources and services.